Terminal Aerodrome Forecast
Issued by NWS

Home | Current Version | Previous Version | Text Only | Print | Product List | Glossary On
Versions: 1 2 3 4 5 6 7 8 9 10 11 12 13 14 15 16 17 18 19 20 21 22 23 24 25 26 27 28
000
FTUS44 KFWD 200500
TAFGKY
TAF
KGKY 200520Z 2006/2106 15007KT P6SM OVC250
     FM201100 17006KT P6SM BKN050 OVC200
     FM201600 17012KT P6SM SCT060 BKN100
     FM210000 16008KT P6SM VCSH OVC060=

USA.gov is the U.S. government's official web portal to all federal, state and local government web resources and services.